Zurück zum Katalog

SL-12 DEB

LostHEO
NORAD 43526·DEBRIS·🇷🇺 Russia

Gestartet Mar 1, 2010 von Baikonur Cosmodrome

Loading…

Nächste Überflüge (nächste 24 Stunden)

TLE

VeraltetSource: Space-Track

Epoche: May 2, 2019, 22:04 UTC

1 43526U 10007Y   19122.91970341  .00319504  00000-0  81965-1 0  9999
2 43526  65.2223  51.7766 5751711  33.2438 352.2901  4.39898364 13936

Verfolge SL-12 DEB in Echtzeit mit AllMySat

Download on the App Store